Weather Roundup
Issued by NWS Corpus Christi, TX

Home | Current Version | Previous Version | Text Only | Print | Product List | Glossary On
Versions: 1 2 3 4 5 6 7 8 9 10 11 12 13 14 15 16 17 18 19 20 21 22 23 24 25 26 27 28 29 30 31 32 33 34 35 36 37 38 39 40 41 42 43 44 45 46 47 48 49 50
000
ASUS44 KCRP 161510
HRRCRP

SOUTH TEXAS REGIONAL WEATHER ROUNDUP
NATIONAL WEATHER SERVICE CORPUS CHRISTI TX
900 AM CST TUE JAN 16 2018


TXZ229>244-161600-
...CORPUS CHRISTI AREA OBSERVATIONS...

CITY           SKY/WX    TMP DP  RH WIND       PRES   REMARKS
CORPUS CHRISTI CLOUDY    34  32  92 N30G37    30.56R WCI  20
NAS CORPUS CHR LGT RAIN  37  34  89 N31G40    30.55R FOG     WCI  24
ROCKPORT       CLOUDY    34  30  85 N23G36    30.55R WCI  22
KINGSVILLE NAS LGT RAIN  35  33  92 N16G26    30.58R FOG     WCI  25
ALICE          CLOUDY    34  27  75 N23G30    30.58R WCI  22
$$

...VICTORIA AREA OBSERVATIONS...

CITY           SKY/WX    TMP DP  RH WIND       PRES   REMARKS
PORT LAVACA    CLOUDY    32  29  92 N24G35    30.58R WCI  18
VICTORIA       CLOUDY    30  27  88 N25G38    30.60R WCI  16
BEEVILLE       CLOUDY    31  26  81 N23G30    30.59R WCI  18
PLEASANTON     RAIN      29  22  75 NE15G25   30.66R WCI  18
SAN ANTONIO    FRZ RAIN  27  17  66 N21G32    30.65R WCI  13
$$

...LAREDO AREA OBSERVATIONS...

CITY           SKY/WX    TMP DP  RH WIND       PRES   REMARKS
LAREDO         LGT RAIN  34  30  86 N20G29    30.65R FOG     WCI  22
COTULLA        MIX PCPN  31  28  89 N9G21     30.66R FOG
DEL RIO        CLOUDY    32   7  35 NW16G26   30.72R WCI  21
MCALLEN        CLOUDY    43  38  82 N17G32    30.50R
HEBBRONVILLE   CLOUDY    32  30  93 N18G28    30.57R WCI  20
$$

...OTHER TEXAS OBSERVATIONS...

CITY           SKY/WX    TMP DP  RH WIND       PRES   REMARKS
BROWNSVILLE    CLOUDY    51  47  86 N17G30    30.44R
HOUSTON        FRZ RAIN  30  28  92 N17G28    30.63R VSB 1   WCI  18
COL. STATION   CLOUDY    25  17  72 N20G31    30.70R WCI  11
AUSTIN         FRZ RAIN  26  17  68 N24G33    30.69R WCI  11
WACO           FLURRIES  23   9  55 N15       30.77R WCI  10
FORT WORTH     CLOUDY    21   7  54 N17       30.80R WCI   7
WICHITA FALLS  CLOUDY    12  -3  51 N14       30.86R WCI  -3
LUBBOCK        PTSUNNY   17  -9  31 N14       30.68R WCI   3
EL PASO        CLOUDY    28   7  41 CALM      30.52R
$$

...MARINE OBSERVATIONS...

STATION/POSITION TIME  SKY/WX   TEMP    WIND        PRES    VSBY  WAVE   SWELL
                                AIR SEA DIR/SP/G                  HT/PER HT/PER
                 (UTC)          (F)     (DEG/KT/KT) (MB)    (MI)  (FT/S) (FT/S)
PORT ARANSAS     NOT AVBL
BUOY 90 E PORT A 1350            53 72  350/ 27/ 35 1029.2          7/ 6
BUOY 200 E PT IS 1450            66 73  250/ 12/ 16 1027.9R         2/ 4   2/ 6
BUOY 15 E GALVES 1350            40 53  350/ 29/ 35 1031.6          6/ 5
$$




USA.gov is the U.S. government's official web portal to all federal, state and local government web resources and services.